カタログに戻る

USA 40 R/B DEB

LostHEO
NORAD 23367·DEBRIS·🇺🇸 United States

打ち上げ Aug 8, 1989 から Cape Canaveral Space Force Station

Loading…

次のパス (今後24時間)

TLE

古いSource: Space-Track

元期: Dec 16, 2021, 18:01 UTC

1 23367U 89061AP  21350.75128964  .00017683  00000-0  66172-2 0  9997
2 23367  56.8338  18.6245 2694202 246.9591  82.6389  9.60702399 99169

AllMySatでUSA 40 R/B DEBをリアルタイム追跡

Download on the App Store